map of MSQ home
MSQ - Airport
Location
City:  Minsk, Minskaya (Minsk), Belarus
Name:Minsk National Airport
Old (Alt.):Minsk-2
ICAO:UMMS
IATA:MSQ

Details
Type:Airport (Aerodrome, Airfield)
Use:Public/Civil, International (customs port of entry)
Latitude:5352'57"N (53.882469)
Longitude:2801'51"E (28.030731)
Datum:WGS 1984
Elevation:670 ft (204 m)
Variation:8.27E (WMM2015v2 magnetic declination)
0.16 annual change
Runways:1
Longest:11946 × 197 ft (3641 × 60 m), paved

Time
Time Zone:UTC+2 (DST+3)

Weather
METAR:UMMS 041400Z 23004MPS 5000 BR OVC004 01/01 Q1017 R31/610147 NOSIG RMK QBB130
TAF:UMMS 041113Z 0411/0512 21006G11MPS 0800 FG VV002 TX02/0412Z TNM04/0503Z
TEMPO 0411/0415 0400 VV001
FM041500 26007G12MPS 1200 BR BKN003
TEMPO 0415/0510 29009G14MPS 0400 +SHSNRA BKN002 BKN015CB

Related Locations
Nearby:
Farthest:CHT: 11130 mi / 17912 km
Waitangi [Tuuta], CIT, NZ

Find:

   beyond  
but within

Other Information
Maps:
NOTAMs:
Links:
Sources:

  
  • flag of Belarus
  • flag of Minskaya (Minsk)
  

Sectional Chart

Flight Planning
at skyvector.com

Satellite Image

Google Maps Satellite view

 

Copyright © 2004-2019 Karl L. Swartz. All rights reserved.
The Great Circle Mapper name and logo are trademarks of the Great Circle Mapper.
All other trademarks mentioned herein belong to their respective owners.
Please see credits for attibutions and further copyright information.

  Follow gcmap on Facebook Follow gcmap on Twitter GCmap on LinkedIn

hCard Microformat

Geo Microformat